VK4TOM-13 Weather Reports


time (UTC)temp
F
wind
direction
speed
knots
gust
knots
rain 1hr
in
rain 24hr
in
rain mn
in
humidity
%
barometer
mb
20260510071624 74 45 0.9 3.5 0.00 0.00 0.00 70 1022.6
20260510070623 74 45 0.0 1.7 0.00 0.00 0.00 70 1022.7
20260510065622 74 34 1.7 3.5 0.00 0.00 0.00 70 1022.7
20260510064621 75 83 0.0 1.7 0.00 0.00 0.00 70 1022.6
20260510063620 75 71 0.9 0.9 0.00 0.00 0.00 70 1022.5
20260510062619 75 33 0.0 2.6 0.00 0.00 0.00 70 1022.4
20260510061617 75 12 0.9 3.5 0.00 0.00 0.00 70 1022.3
20260510060616 76 123 1.7 1.7 0.00 0.00 0.00 70 1022.1
20260510055615 76 24 0.0 3.5 0.00 0.00 0.00 70 1022.0
20260510054614 76 62 0.0 0.9 0.00 0.00 0.00 70 1021.9
20260510053613 76 81 0.0 2.6 0.00 0.00 0.00 70 1021.9
20260510052613 76 84 0.0 4.3 0.00 0.00 0.00 70 1021.8
20260510052306 76 148 4.3 4.3 0.00 0.00 0.00 70 1021.7
20260510051736 76 68 0.0 3.5 0.00 0.00 0.00 70 1021.6
20260510050735 76 103 0.0 2.6 0.00 0.00 0.00 70 1021.6
20260510045734 76 126 0.0 2.6 0.00 0.00 0.00 70 1021.9
20260510044733 76 63 0.9 1.7 0.00 0.00 0.00 70 1021.8
20260510043732 76 85 0.0 2.6 0.00 0.00 0.00 70 1021.4
20260510042730 77 31 0.9 1.7 0.00 0.00 0.00 70 1021.3
20260510041729 77 289 0.0 1.7 0.00 0.00 0.00 70 1021.6
20260510040728 77 94 0.0 2.6 0.00 0.00 0.00 70 1021.7
20260510035727 77 126 0.9 1.7 0.00 0.00 0.00 70 1022.0
20260510034726 77 15 1.7 1.7 0.00 0.00 0.00 70 1021.7
20260510032724 77 27 0.0 1.7 0.00 0.00 0.00 70 1022.0
20260510031723 78 149 0.9 1.7 0.00 0.00 0.00 70 1022.5
20260510030722 78 55 0.0 0.9 0.00 0.00 0.00 70 1022.5
20260510025721 78 50 0.0 1.7 0.00 0.00 0.00 70 1022.6
20260510024720 78 27 0.0 0.9 0.00 0.00 0.00 70 1022.4
20260510023719 77 55 0.0 0.9 0.00 0.00 0.00 70 1022.4
20260510022718 77 65 0.0 1.7 0.00 0.00 0.00 70 1022.3
20260510021717 76 45 0.9 2.6 0.00 0.00 0.00 70 1022.7
20260510020716 76 90 0.0 1.7 0.00 0.00 0.00 70 1022.7
20260510015715 76 90 0.9 2.6 0.00 0.00 0.00 70 1023.4
20260510014713 75 90 0.0 2.6 0.00 0.00 0.00 70 1023.5
20260510013712 74 108 1.7 2.6 0.00 0.00 0.00 70 1023.5
20260510012711 74 137 0.9 2.6 0.00 0.00 0.00 70 1023.5
20260510011710 74 116 1.7 2.6 0.00 0.00 0.00 70 1023.6
20260510010709 74 94 0.0 3.5 0.00 0.00 0.00 70 1023.7
20260510005708 74 110 0.9 3.5 0.00 0.00 0.00 70 1023.7
20260510004708 74 56 0.0 5.2 0.00 0.00 0.00 70 1023.6
20260510004358 73 104 4.3 4.3 0.00 0.00 0.00 70 1023.6
20260510003900 73 234 0.0 4.3 0.00 0.00 0.00 70 1023.5
20260510002859 73 27 1.7 3.5 0.00 0.00 0.00 70 1023.6
20260510001858 73 232 0.9 6.1 0.00 0.00 0.00 70 1023.8
20260510000857 73 74 4.3 4.3 0.00 0.00 0.00 70 1024.0
20260510000550 73 84 0.0 3.5 0.00 0.00 0.00 70 1024.0
20260509235550 73 72 4.3 4.3 0.00 0.00 0.00 70 1024.4
20260509235055 72 75 0.0 2.6 0.00 0.00 0.00 70 1024.3
20260509234054 72 105 0.0 1.7 0.00 0.00 0.00 70 1024.3
20260509233053 72 84 1.7 4.3 0.00 0.00 0.00 70 1024.3
20260509232052 72 235 1.7 3.5 0.00 0.00 0.00 70 1024.1
20260509231051 71 97 1.7 2.6 0.00 0.00 0.00 70 1023.7
20260509230050 71 142 0.0 2.6 0.00 0.00 0.00 70 1024.0
20260509225049 70 163 1.7 1.7 0.00 0.00 0.00 70 1023.8
20260509224048 69 215 2.6 3.5 0.00 0.00 0.00 70 1023.0
20260509223047 69 100 0.9 3.5 0.00 0.00 0.00 70 1022.9
20260509222047 69 71 0.0 3.5 0.00 0.00 0.00 70 1022.9
20260509221654 69 143 4.3 4.3 0.00 0.00 0.00 70 1023.1
20260509220722 69 93 0.0 3.5 0.00 0.00 0.00 70 1023.1
20260509215721 68 103 0.9 1.7 0.00 0.00 0.00 70 1023.2
20260509214720 68 146 3.5 3.5 0.00 0.00 0.00 70 1023.1
20260509213718 67 15 0.9 1.7 0.00 0.00 0.00 70 1022.8
20260509212717 67 45 0.0 0.9 0.00 0.00 0.00 70 1023.0
20260509211716 66 135 0.0 0.9 0.00 0.00 0.00 70 1023.1
20260509210715 66 187 1.7 2.6 0.00 0.00 0.00 70 1022.9
20260509205714 66 241 0.9 0.9 0.00 0.00 0.00 70 1022.5
20260509204713 66 144 0.0 0.9 0.00 0.00 0.00 70 1022.4
20260509203712 66 90 0.0 1.7 0.00 0.00 0.00 70 1022.6
20260509201710 65 243 0.0 0.9 0.00 0.00 0.00 70 1022.3
20260509200709 65 268 0.0 0.9 0.00 0.00 0.00 70 1021.9
20260509195708 65 205 0.0 0.0 0.00 0.00 0.00 70 1022.1
20260509194707 65 85 0.9 2.6 0.00 0.00 0.00 70 1022.1
20260509193705 65 135 0.0 0.9 0.00 0.00 0.00 70 1022.2
20260509192704 65 143 0.9 0.9 0.00 0.00 0.00 70 1021.9
20260509191703 65 228 0.0 1.7 0.00 0.00 0.00 70 1021.9
20260509190702 65 85 0.0 0.9 0.00 0.00 0.00 70 1021.9
20260509185701 65 159 0.0 0.9 0.00 0.00 0.00 70 1021.8
20260509184700 65 106 0.9 1.7 0.00 0.00 0.00 70 1021.5
20260509183659 65 285 0.0 1.7 0.00 0.00 0.00 70 1021.5
20260509182658 65 136 0.0 1.7 0.00 0.00 0.00 70 1021.5
20260509181657 65 97 0.0 1.7 0.00 0.00 0.00 70 1021.4
20260509180656 65 45 0.0 1.7 0.00 0.00 0.00 70 1021.1
20260509175655 65 173 0.9 3.5 0.00 0.00 0.00 70 1021.0
20260509174654 65 171 0.9 0.9 0.00 0.00 0.00 70 1020.9
20260509173653 64 166 0.0 3.5 0.00 0.00 0.00 70 1020.8
20260509172652 64 135 0.0 0.0 0.00 0.00 0.00 70 1020.9
20260509171651 63 151 0.9 2.6 0.00 0.00 0.00 70 1021.1
20260509170650 62 314 0.0 0.9 0.00 0.00 0.00 70 1021.0
20260509165648 62 132 0.0 0.9 0.00 0.00 0.00 70 1020.9
20260509164647 62 45 0.0 0.0 0.00 0.00 0.00 70 1021.1
20260509163646 62 90 0.0 0.0 0.00 0.00 0.00 70 1021.2
20260509162645 62 45 0.0 0.0 0.00 0.00 0.00 70 1021.2
20260509161644 62 45 0.0 0.0 0.00 0.00 0.00 70 1021.3
20260509160643 62 90 0.0 0.0 0.00 0.00 0.00 70 1021.4
20260509155642 62 91 0.0 0.0 0.00 0.00 0.00 70 1021.4
20260509154641 62 90 0.0 0.0 0.00 0.00 0.00 70 1021.5
20260509153640 63 180 0.0 0.0 0.00 0.00 0.00 70 1021.4
20260509152639 63 45 0.0 0.0 0.00 0.00 0.00 70 1021.5
20260509151638 63 248 0.0 1.7 0.00 0.00 0.00 70 1021.4
20260509150637 63 138 0.0 0.9 0.00 0.00 0.00 70 1021.7
20260509145635 63 69 0.0 0.9 0.00 0.00 0.00 70 1021.6
20260509144634 63 253 0.0 1.7 0.00 0.00 0.00 70 1021.7
20260509143634 64 94 0.0 0.9 0.00 0.00 0.00 70 1021.6
20260509142633 64 135 0.0 0.9 0.00 0.00 0.00 70 1021.8
20260509141631 64 180 0.0 0.9 0.00 0.00 0.00 70 1021.9
20260509140630 64 155 0.0 0.9 0.00 0.00 0.00 70 1021.9
20260509135629 64 135 0.0 1.7 0.00 0.00 0.00 70 1021.9
20260509134628 65 117 0.0 0.0 0.00 0.00 0.00 70 1022.2
20260509133627 65 270 0.0 0.9 0.00 0.00 0.00 70 1022.1
20260509132626 65 93 0.0 1.7 0.00 0.00 0.00 70 1022.2
20260509131625 65 144 0.0 1.7 0.00 0.00 0.00 70 1022.2
20260509130624 65 204 0.0 0.9 0.00 0.00 0.00 70 1022.2
20260509125623 64 153 0.0 1.7 0.00 0.00 0.00 70 1022.2
20260509124622 65 276 0.0 0.9 0.00 0.00 0.00 70 1022.1
20260509123621 65 154 0.0 0.0 0.00 0.00 0.00 70 1022.1
20260509122620 65 106 0.0 0.9 0.00 0.00 0.00 70 1022.0
20260509121618 65 142 0.9 0.9 0.00 0.00 0.00 70 1021.9
20260509120617 66 45 0.0 0.9 0.00 0.00 0.00 70 1022.1
20260509115616 67 133 0.0 0.9 0.00 0.00 0.00 70 1022.0
20260509114615 67 352 0.0 0.9 0.00 0.00 0.00 70 1021.9
20260509113614 69 135 0.0 1.7 0.00 0.00 0.00 70 1022.2
20260509112613 70 240 0.0 0.9 0.00 0.00 0.00 70 1022.0
20260509111612 70 94 1.7 1.7 0.00 0.00 0.00 70 1022.1
20260509110611 70 20 0.9 2.6 0.00 0.00 0.00 70 1022.0
20260509105610 70 45 0.0 1.7 0.00 0.00 0.00 70 1022.1
20260509104609 70 61 0.9 2.6 0.00 0.00 0.00 70 1022.2
20260509103608 70 51 0.9 3.5 0.00 0.00 0.00 70 1022.0
20260509102607 70 76 0.9 3.5 0.00 0.00 0.00 70 1021.9
20260509101605 70 63 1.7 2.6 0.00 0.00 0.00 70 1022.0
20260509100605 70 34 0.0 4.3 0.00 0.00 0.00 70 1021.7
20260509100304 70 32 5.2 5.2 0.00 0.00 0.00 70 1021.8
20260509095556 70 48 0.0 2.6 0.00 0.00 0.00 70 1021.7
20260509094554 70 188 0.9 3.5 0.00 0.00 0.00 70 1021.5
20260509093553 70 85 0.0 1.7 0.00 0.00 0.00 70 1021.4
20260509092552 70 58 0.9 4.3 0.00 0.00 0.00 70 1021.2
20260509091551 70 56 1.7 2.6 0.00 0.00 0.00 70 1021.0
20260509090550 70 51 1.7 2.6 0.00 0.00 0.00 70 1020.9
20260509085550 70 68 0.0 2.6 0.00 0.00 0.00 70 1020.8
20260509085038 70 92 4.3 4.3 0.00 0.00 0.00 70 1020.6
20260509084336 70 65 0.0 2.6 0.00 0.00 0.00 70 1020.6
20260509083335 70 70 1.7 3.5 0.00 0.00 0.00 70 1020.5
20260509082334 71 26 1.7 3.5 0.00 0.00 0.00 70 1020.5
20260509081333 71 53 0.9 3.5 0.00 0.00 0.00 70 1020.4
20260509080332 71 55 0.0 2.6 0.00 0.00 0.00 70 1020.2
20260509075330 71 45 0.9 1.7 0.00 0.00 0.00 70 1020.1
20260509074329 72 68 0.9 1.7 0.00 0.00 0.00 70 1020.0
20260509073328 72 45 0.0 0.9 0.00 0.00 0.00 70 1019.8
20260509072327 73 45 0.0 0.9 0.00 0.00 0.00 70 1019.6